| time (UTC) | temp F | wind direction | speed MPH | gust MPH | rain 1hr in | rain 24hr in | rain mn in | humidity % | barometer mb |
| 20260505003720 | 62 | 14 | 2.0 | 4.0 | 0.00 | 0.00 | 0.00 | 48 | 1010.9 |
| 20260505003226 | 62 | 27 | 2.0 | 3.0 | 0.00 | 0.00 | 0.00 | 48 | 1010.9 |
| 20260505002731 | 62 | 9 | 2.0 | 3.0 | 0.00 | 0.00 | 0.00 | 49 | 1011.0 |
| 20260505002236 | 62 | 14 | 2.0 | 3.0 | 0.00 | 0.00 | 0.00 | 49 | 1011.1 |
| 20260505001742 | 62 | 45 | 3.0 | 5.0 | 0.00 | 0.00 | 0.00 | 48 | 1011.1 |
| 20260505001247 | 62 | 69 | 5.0 | 6.0 | 0.00 | 0.00 | 0.00 | 48 | 1011.1 |
| 20260505000753 | 62 | 51 | 4.0 | 5.0 | 0.00 | 0.00 | 0.00 | 49 | 1011.1 |
| 20260505000258 | 62 | 55 | 3.0 | 4.0 | 0.00 | 0.00 | 0.00 | 49 | 1011.1 |
| 20260504235803 | 62 | 77 | 3.0 | 4.0 | 0.00 | 0.00 | 0.00 | 49 | 1011.2 |
| 20260504234814 | 62 | 135 | 3.0 | 4.0 | 0.00 | 0.00 | 0.00 | 50 | 1011.4 |
| 20260504234320 | 62 | 129 | 3.0 | 5.0 | 0.00 | 0.00 | 0.00 | 52 | 1011.4 |
| 20260504233825 | 62 | 123 | 3.0 | 4.0 | 0.00 | 0.00 | 0.00 | 51 | 1011.5 |
| 20260504233331 | 61 | 186 | 2.0 | 2.0 | 0.00 | 0.00 | 0.00 | 49 | 1011.6 |
| 20260504232836 | 61 | 222 | 1.0 | 2.0 | 0.00 | 0.00 | 0.00 | 49 | 1011.7 |
| 20260504232341 | 61 | 207 | 3.0 | 6.0 | 0.00 | 0.00 | 0.00 | 49 | 1011.7 |
| 20260504231847 | 62 | 183 | 3.0 | 4.0 | 0.00 | 0.00 | 0.00 | 50 | 1011.9 |
| 20260504231352 | 61 | 186 | 2.0 | 5.0 | 0.00 | 0.00 | 0.00 | 51 | 1012.0 |
| 20260504230858 | 61 | 192 | 4.0 | 5.0 | 0.00 | 0.00 | 0.00 | 51 | 1012.1 |
| 20260504230403 | 61 | 195 | 5.0 | 7.0 | 0.00 | 0.00 | 0.00 | 52 | 1012.2 |
| 20260504225909 | 61 | 183 | 6.0 | 7.0 | 0.00 | 0.00 | 0.00 | 53 | 1012.2 |
| 20260504225414 | 60 | 183 | 8.0 | 9.0 | 0.00 | 0.00 | 0.00 | 54 | 1012.3 |
| 20260504224920 | 61 | 186 | 6.0 | 8.0 | 0.00 | 0.00 | 0.00 | 50 | 1012.3 |
| 20260504224425 | 61 | 189 | 4.0 | 5.0 | 0.00 | 0.00 | 0.00 | 47 | 1012.2 |
| 20260504223930 | 62 | 177 | 2.0 | 4.0 | 0.00 | 0.00 | 0.00 | 46 | 1012.1 |
| 20260504223436 | 63 | 183 | 2.0 | 3.0 | 0.00 | 0.00 | 0.00 | 45 | 1012.0 |
| 20260504222941 | 63 | 140 | 1.0 | 4.0 | 0.00 | 0.00 | 0.00 | 45 | 1011.9 |
| 20260504222447 | 63 | 240 | 1.0 | 3.0 | 0.00 | 0.00 | 0.00 | 44 | 1011.8 |
| 20260504221952 | 63 | 94 | 1.0 | 4.0 | 0.00 | 0.00 | 0.00 | 44 | 1011.7 |
| 20260504221457 | 64 | 55 | 3.0 | 4.0 | 0.00 | 0.00 | 0.00 | 44 | 1011.7 |
| 20260504221003 | 64 | 43 | 2.0 | 5.0 | 0.00 | 0.00 | 0.00 | 44 | 1011.7 |
| 20260504220508 | 64 | 23 | 2.0 | 4.0 | 0.00 | 0.00 | 0.00 | 44 | 1011.7 |
| 20260504220013 | 64 | 33 | 2.0 | 3.0 | 0.00 | 0.00 | 0.00 | 44 | 1011.7 |
| 20260504215519 | 64 | 340 | 2.0 | 8.0 | 0.00 | 0.00 | 0.00 | 44 | 1011.7 |
| 20260504215024 | 64 | 287 | 2.0 | 5.0 | 0.00 | 0.00 | 0.00 | 44 | 1011.7 |
| 20260504214530 | 63 | 349 | 2.0 | 3.0 | 0.00 | 0.00 | 0.00 | 44 | 1011.8 |
| 20260504214035 | 63 | 34 | 2.0 | 3.0 | 0.00 | 0.00 | 0.00 | 44 | 1011.8 |
| 20260504213540 | 63 | 21 | 2.0 | 5.0 | 0.00 | 0.00 | 0.00 | 44 | 1011.9 |
| 20260504213046 | 63 | 355 | 2.0 | 4.0 | 0.00 | 0.00 | 0.00 | 44 | 1011.9 |
| 20260504212057 | 63 | 356 | 2.0 | 4.0 | 0.00 | 0.00 | 0.00 | 43 | 1012.0 |
| 20260504211602 | 63 | 343 | 2.0 | 3.0 | 0.00 | 0.00 | 0.00 | 44 | 1012.0 |
| 20260504211107 | 63 | 360 | 2.0 | 3.0 | 0.00 | 0.00 | 0.00 | 43 | 1012.1 |
| 20260504210613 | 63 | 354 | 2.0 | 3.0 | 0.00 | 0.00 | 0.00 | 43 | 1012.2 |
| 20260504210118 | 63 | 356 | 2.0 | 3.0 | 0.00 | 0.00 | 0.00 | 44 | 1012.2 |
| 20260504205623 | 63 | 3 | 2.0 | 3.0 | 0.00 | 0.00 | 0.00 | 43 | 1012.3 |
| 20260504205129 | 63 | 346 | 2.0 | 3.0 | 0.00 | 0.00 | 0.00 | 43 | 1012.4 |
| 20260504204634 | 63 | 335 | 2.0 | 3.0 | 0.00 | 0.00 | 0.00 | 43 | 1012.4 |
| 20260504204139 | 63 | 340 | 2.0 | 3.0 | 0.00 | 0.00 | 0.00 | 43 | 1012.4 |
| 20260504203645 | 64 | 345 | 2.0 | 3.0 | 0.00 | 0.00 | 0.00 | 43 | 1012.4 |
| 20260504202655 | 64 | 344 | 2.0 | 3.0 | 0.00 | 0.00 | 0.00 | 42 | 1012.5 |
| 20260504202201 | 64 | 339 | 2.0 | 3.0 | 0.00 | 0.00 | 0.00 | 41 | 1012.5 |
| 20260504201706 | 64 | 1 | 1.0 | 2.0 | 0.00 | 0.00 | 0.00 | 41 | 1012.4 |
| 20260504201211 | 65 | 352 | 2.0 | 4.0 | 0.00 | 0.00 | 0.00 | 41 | 1012.4 |
| 20260504200717 | 65 | 13 | 1.0 | 3.0 | 0.00 | 0.00 | 0.00 | 40 | 1012.4 |
| 20260504200222 | 65 | 348 | 2.0 | 4.0 | 0.00 | 0.00 | 0.00 | 40 | 1012.4 |
| 20260504195727 | 65 | 347 | 2.0 | 3.0 | 0.00 | 0.00 | 0.00 | 40 | 1012.3 |
| 20260504195232 | 66 | 350 | 2.0 | 4.0 | 0.00 | 0.00 | 0.00 | 39 | 1012.3 |
| 20260504194737 | 66 | 339 | 3.0 | 4.0 | 0.00 | 0.00 | 0.00 | 38 | 1012.3 |
| 20260504193748 | 67 | 9 | 3.0 | 4.0 | 0.00 | 0.00 | 0.00 | 37 | 1012.1 |
| 20260504193253 | 67 | 12 | 2.0 | 3.0 | 0.00 | 0.00 | 0.00 | 37 | 1012.2 |
| 20260504192758 | 67 | 37 | 2.0 | 3.0 | 0.00 | 0.00 | 0.00 | 37 | 1012.2 |
| 20260504191808 | 68 | 33 | 2.0 | 3.0 | 0.00 | 0.00 | 0.00 | 36 | 1012.0 |
| 20260504191314 | 68 | 51 | 3.0 | 5.0 | 0.00 | 0.00 | 0.00 | 36 | 1012.0 |
| 20260504190819 | 68 | 71 | 4.0 | 5.0 | 0.00 | 0.00 | 0.00 | 36 | 1011.9 |
| 20260504190324 | 68 | 54 | 3.0 | 5.0 | 0.00 | 0.00 | 0.00 | 36 | 1012.0 |
| 20260504185829 | 68 | 49 | 3.0 | 3.0 | 0.00 | 0.00 | 0.00 | 36 | 1012.0 |
| 20260504185334 | 68 | 41 | 3.0 | 4.0 | 0.00 | 0.00 | 0.00 | 36 | 1012.0 |
| 20260504184839 | 69 | 54 | 3.0 | 5.0 | 0.00 | 0.00 | 0.00 | 36 | 1011.9 |
| 20260504184344 | 69 | 55 | 3.0 | 4.0 | 0.00 | 0.00 | 0.00 | 35 | 1011.9 |
| 20260504183354 | 69 | 58 | 4.0 | 5.0 | 0.00 | 0.00 | 0.00 | 35 | 1011.8 |
| 20260504182859 | 69 | 57 | 3.0 | 4.0 | 0.00 | 0.00 | 0.00 | 35 | 1011.8 |
| 20260504182404 | 69 | 71 | 4.0 | 5.0 | 0.00 | 0.00 | 0.00 | 34 | 1011.8 |
| 20260504181909 | 69 | 62 | 3.0 | 4.0 | 0.00 | 0.00 | 0.00 | 34 | 1011.9 |
| 20260504181414 | 70 | 94 | 3.0 | 4.0 | 0.00 | 0.00 | 0.00 | 34 | 1011.8 |
| 20260504180424 | 70 | 93 | 3.0 | 4.0 | 0.00 | 0.00 | 0.00 | 34 | 1011.8 |
| 20260504175929 | 70 | 93 | 3.0 | 4.0 | 0.00 | 0.00 | 0.00 | 33 | 1011.9 |
| 20260504175434 | 71 | 93 | 3.0 | 4.0 | 0.00 | 0.00 | 0.00 | 34 | 1011.8 |
| 20260504174939 | 71 | 105 | 3.0 | 4.0 | 0.00 | 0.00 | 0.00 | 33 | 1011.8 |
| 20260504173949 | 71 | 97 | 3.0 | 3.0 | 0.00 | 0.00 | 0.00 | 33 | 1011.9 |
| 20260504173454 | 71 | 87 | 2.0 | 3.0 | 0.00 | 0.00 | 0.00 | 33 | 1011.8 |
| 20260504172959 | 71 | 102 | 2.0 | 3.0 | 0.00 | 0.00 | 0.00 | 33 | 1011.9 |
| 20260504172504 | 71 | 113 | 2.0 | 2.0 | 0.00 | 0.00 | 0.00 | 34 | 1011.8 |
| 20260504172009 | 71 | 159 | 2.0 | 2.0 | 0.00 | 0.00 | 0.00 | 34 | 1011.9 |
| 20260504171514 | 72 | 138 | 2.0 | 3.0 | 0.00 | 0.00 | 0.00 | 34 | 1011.9 |
| 20260504171019 | 72 | 158 | 2.0 | 3.0 | 0.00 | 0.00 | 0.00 | 34 | 1012.0 |
| 20260504170524 | 72 | 156 | 2.0 | 3.0 | 0.00 | 0.00 | 0.00 | 34 | 1012.0 |
| 20260504160127 | 73 | 138 | 4.0 | 5.0 | 0.00 | 0.00 | 0.00 | 34 | 1012.3 |
| 20260504150717 | 78 | 129 | 4.0 | 6.0 | 0.00 | 0.00 | 0.00 | 33 | 1012.4 |
| 20260504150221 | 78 | 129 | 6.0 | 8.0 | 0.00 | 0.00 | 0.00 | 33 | 1012.5 |
| 20260504141304 | 79 | 183 | 3.0 | 4.0 | 0.00 | 0.00 | 0.00 | 32 | 1012.9 |
| 20260504140809 | 79 | 198 | 2.0 | 2.0 | 0.00 | 0.00 | 0.00 | 33 | 1012.9 |
| 20260504140313 | 80 | 219 | 2.0 | 3.0 | 0.00 | 0.00 | 0.00 | 33 | 1012.9 |
| 20260504130405 | 78 | 165 | 4.0 | 7.0 | 0.00 | 0.00 | 0.00 | 34 | 1013.5 |
| 20260504110552 | 76 | 168 | 2.0 | 5.0 | 0.00 | 0.00 | 0.00 | 34 | 1014.3 |
| 20260504100144 | 84 | 298 | 2.0 | 4.0 | 0.00 | 0.00 | 0.00 | 35 | 1015.0 |
| 20260504081817 | 71 | 132 | 5.0 | 7.0 | 0.00 | 0.00 | 0.00 | 38 | 1015.0 |
| 20260504080826 | 72 | 111 | 2.0 | 4.0 | 0.00 | 0.00 | 0.00 | 39 | 1015.1 |
| 20260504080331 | 70 | 132 | 4.0 | 5.0 | 0.00 | 0.00 | 0.00 | 39 | 1015.1 |
| 20260504050640 | 55 | 141 | 1.0 | 3.0 | 0.00 | 0.00 | 0.00 | 45 | 1014.5 |
| 20260504050145 | 55 | 180 | 2.0 | 3.0 | 0.00 | 0.00 | 0.00 | 45 | 1014.5 |
| 20260504045652 | 55 | 184 | 1.0 | 3.0 | 0.00 | 0.00 | 0.00 | 45 | 1014.5 |
| 20260504045157 | 55 | 134 | 2.0 | 3.0 | 0.00 | 0.00 | 0.00 | 45 | 1014.4 |
| 20260504044702 | 55 | 128 | 2.0 | 3.0 | 0.00 | 0.00 | 0.00 | 45 | 1014.2 |
| 20260504044208 | 56 | 121 | 3.0 | 4.0 | 0.00 | 0.00 | 0.00 | 45 | 1014.1 |
| 20260504043714 | 56 | 96 | 4.0 | 5.0 | 0.00 | 0.00 | 0.00 | 44 | 1014.1 |
| 20260504043220 | 56 | 93 | 5.0 | 7.0 | 0.00 | 0.00 | 0.00 | 46 | 1014.1 |
| 20260504042725 | 55 | 90 | 6.0 | 8.0 | 0.00 | 0.00 | 0.00 | 48 | 1013.8 |
| 20260504042231 | 55 | 90 | 7.0 | 9.0 | 0.00 | 0.00 | 0.00 | 47 | 1013.8 |
| 20260504041736 | 55 | 87 | 7.0 | 8.0 | 0.00 | 0.00 | 0.00 | 48 | 1013.8 |
| 20260504041242 | 55 | 87 | 6.0 | 8.0 | 0.00 | 0.00 | 0.00 | 46 | 1013.9 |
| 20260504040748 | 55 | 93 | 6.0 | 8.0 | 0.00 | 0.00 | 0.00 | 46 | 1013.9 |
| 20260504035759 | 55 | 87 | 5.0 | 6.0 | 0.00 | 0.00 | 0.00 | 42 | 1014.1 |
| 20260504035305 | 55 | 80 | 5.0 | 7.0 | 0.00 | 0.00 | 0.00 | 42 | 1014.0 |
| 20260504034811 | 55 | 69 | 5.0 | 6.0 | 0.00 | 0.00 | 0.00 | 42 | 1014.1 |
| 20260504034316 | 55 | 66 | 5.0 | 6.0 | 0.00 | 0.00 | 0.00 | 42 | 1014.0 |
| 20260504033822 | 55 | 69 | 4.0 | 6.0 | 0.00 | 0.00 | 0.00 | 42 | 1014.0 |
| 20260504033328 | 55 | 72 | 4.0 | 6.0 | 0.00 | 0.00 | 0.00 | 43 | 1014.1 |
| 20260504032834 | 54 | 54 | 4.0 | 5.0 | 0.00 | 0.00 | 0.00 | 43 | 1014.1 |
| 20260504032339 | 54 | 51 | 3.0 | 3.0 | 0.00 | 0.00 | 0.00 | 43 | 1014.2 |
| 20260504031845 | 55 | 69 | 3.0 | 3.0 | 0.00 | 0.00 | 0.00 | 43 | 1014.2 |
| 20260504031351 | 55 | 55 | 4.0 | 5.0 | 0.00 | 0.00 | 0.00 | 42 | 1014.1 |
| 20260504030857 | 55 | 58 | 3.0 | 5.0 | 0.00 | 0.00 | 0.00 | 43 | 1014.1 |
| 20260504030403 | 55 | 54 | 4.0 | 5.0 | 0.00 | 0.00 | 0.00 | 43 | 1014.1 |
| 20260504025908 | 55 | 56 | 3.0 | 5.0 | 0.00 | 0.00 | 0.00 | 42 | 1014.0 |
| 20260504025414 | 55 | 46 | 4.0 | 4.0 | 0.00 | 0.00 | 0.00 | 43 | 1014.0 |
| 20260504024920 | 54 | 44 | 2.0 | 3.0 | 0.00 | 0.00 | 0.00 | 43 | 1014.2 |
| 20260504024425 | 54 | 331 | 2.0 | 3.0 | 0.00 | 0.00 | 0.00 | 43 | 1014.2 |
| 20260504023931 | 54 | 338 | 4.0 | 5.0 | 0.00 | 0.00 | 0.00 | 43 | 1014.3 |
| 20260504023436 | 54 | 327 | 4.0 | 4.0 | 0.00 | 0.00 | 0.00 | 43 | 1014.2 |
| 20260504022942 | 55 | 325 | 4.0 | 5.0 | 0.00 | 0.00 | 0.00 | 42 | 1014.2 |
| 20260504022448 | 55 | 23 | 1.0 | 2.0 | 0.00 | 0.00 | 0.00 | 42 | 1014.2 |
| 20260504021953 | 56 | 132 | 1.0 | 2.0 | 0.00 | 0.00 | 0.00 | 42 | 1014.1 |
| 20260504021459 | 56 | 145 | 2.0 | 2.0 | 0.00 | 0.00 | 0.00 | 42 | 1014.0 |
| 20260504021004 | 57 | 121 | 3.0 | 3.0 | 0.00 | 0.00 | 0.00 | 43 | 1014.0 |
| 20260504020510 | 57 | 116 | 3.0 | 3.0 | 0.00 | 0.00 | 0.00 | 42 | 1014.0 |
| 20260504020016 | 57 | 113 | 3.0 | 3.0 | 0.00 | 0.00 | 0.00 | 42 | 1014.0 |
| 20260504015521 | 57 | 117 | 3.0 | 4.0 | 0.00 | 0.00 | 0.00 | 42 | 1013.8 |
| 20260504015027 | 58 | 129 | 4.0 | 5.0 | 0.00 | 0.00 | 0.00 | 43 | 1013.8 |
| 20260504014532 | 58 | 125 | 3.0 | 4.0 | 0.00 | 0.00 | 0.00 | 43 | 1013.7 |
| 20260504014038 | 58 | 116 | 3.0 | 4.0 | 0.00 | 0.00 | 0.00 | 42 | 1013.7 |
| 20260504013544 | 58 | 94 | 3.0 | 4.0 | 0.00 | 0.00 | 0.00 | 42 | 1013.7 |
| 20260504013049 | 58 | 84 | 4.0 | 4.0 | 0.00 | 0.00 | 0.00 | 41 | 1013.7 |
| 20260504012555 | 58 | 90 | 4.0 | 5.0 | 0.00 | 0.00 | 0.00 | 40 | 1013.6 |
| 20260504012100 | 58 | 80 | 4.0 | 5.0 | 0.00 | 0.00 | 0.00 | 40 | 1013.6 |
| 20260504011606 | 58 | 63 | 3.0 | 4.0 | 0.00 | 0.00 | 0.00 | 41 | 1013.7 |
| 20260504011111 | 58 | 52 | 4.0 | 5.0 | 0.00 | 0.00 | 0.00 | 41 | 1013.6 |
| 20260504010617 | 58 | 77 | 5.0 | 5.0 | 0.00 | 0.00 | 0.00 | 40 | 1013.6 |
| 20260504010122 | 59 | 71 | 5.0 | 5.0 | 0.00 | 0.00 | 0.00 | 41 | 1013.7 |
| 20260504005628 | 59 | 83 | 5.0 | 7.0 | 0.00 | 0.00 | 0.00 | 40 | 1013.6 |
| 20260504005134 | 59 | 80 | 5.0 | 7.0 | 0.00 | 0.00 | 0.00 | 40 | 1013.5 |